When you browse on this site, cookies collect data to enhance your experience and personalize the content and advertising you see.
Visit our Privacy Policy to learn more. By continuing to use the site, you agree to this use of cookies and data.
  • In France
  • List of Countries
  • For 7 days
  • Water Temperature
  • Weather Map
  • Weather Widgets
  • user-avatar
    Login

    Hourly Weather Canillo

    Today, 21 February, Friday

    Time Temperature Precipitation Wind Pressure Humidity
    00:00 -1°C° 0 mm 2 mps 622 mmHg 75%
    01:00 -1°C° 0 mm 2 mps 622 mmHg 75%
    02:00 -1°C° 0 mm 2 mps 622 mmHg 75%
    03:00 -2°C° 0 mm 2 mps 622 mmHg 75%
    04:00 0°C° 0 mm 1 mps 622 mmHg 69%
    05:00 0°C° 0 mm 1 mps 622 mmHg 63%
    06:00 0°C° 0 mm 1 mps 622 mmHg 57%
    13:00 +10°C° 0 mm 1 mps 626 mmHg 41%
    14:00 +10°C° 0 mm 1 mps 626 mmHg 46%
    15:00 +10°C° 0 mm 1 mps 625 mmHg 50%
    16:00 +7°C° 0 mm 1 mps 624 mmHg 59%
    17:00 +5°C° 0 mm 1 mps 624 mmHg 68%
    18:00 +3°C° 0 mm 1 mps 623 mmHg 76%
    19:00 +3°C° 0 mm 1 mps 623 mmHg 65%
    20:00 +3°C° 0 mm 1 mps 623 mmHg 53%
    21:00 +3°C° 0 mm 1 mps 623 mmHg 41%
    22:00 +3°C° 0 mm 1 mps 623 mmHg 38%
    23:00 +2°C° 0 mm 2 mps 623 mmHg 34%

    Tomorrow, 22 February, Saturday

    Time Temperature Precipitation Wind Pressure Humidity
    00:00 +2°C° 0 mm 2 mps 623 mmHg 31%
    01:00 +2°C° 0 mm 2 mps 623 mmHg 29%
    02:00 +2°C° 0 mm 2 mps 623 mmHg 27%
    03:00 +1°C° 0 mm 2 mps 623 mmHg 25%
    04:00 +2°C° 0 mm 2 mps 623 mmHg 25%
    05:00 +2°C° 0 mm 2 mps 624 mmHg 24%
    06:00 +2°C° 0 mm 2 mps 624 mmHg 23%
    07:00 +4°C° 0 mm 2 mps 625 mmHg 24%
    08:00 +7°C° 0 mm 1 mps 626 mmHg 26%
    09:00 +8°C° 0 mm 1 mps 627 mmHg 28%
    10:00 +10°C° 0 mm 1 mps 628 mmHg 28%
    11:00 +11°C° 0 mm 1 mps 629 mmHg 27%
    12:00 +12°C° 0 mm 1 mps 629 mmHg 26%
    13:00 +12°C° 0 mm 1 mps 629 mmHg 29%
    14:00 +12°C° 0 mm 1 mps 629 mmHg 32%
    15:00 +12°C° 0 mm 1 mps 628 mmHg 35%
    16:00 +9°C° 0 mm 1 mps 627 mmHg 46%
    17:00 +6°C° 0 mm 1 mps 627 mmHg 57%
    18:00 +4°C° 0 mm 1 mps 626 mmHg 67%
    19:00 +4°C° 0 mm 1 mps 626 mmHg 59%
    20:00 +4°C° 0 mm 1 mps 626 mmHg 50%
    21:00 +3°C° 0 mm 2 mps 626 mmHg 41%
    22:00 +3°C° 0 mm 2 mps 626 mmHg 37%
    23:00 +3°C° 0 mm 2 mps 626 mmHg 34%

    Day after tomorrow, 23 February, Sunday

    Time Temperature Precipitation Wind Pressure Humidity
    00:00 +3°C° 0 mm 2 mps 626 mmHg 30%
    01:00 +4°C° 0 mm 1 mps 626 mmHg 30%
    02:00 +4°C° 0 mm 1 mps 626 mmHg 30%
    03:00 +4°C° 0 mm 1 mps 626 mmHg 29%
    04:00 +4°C° 0 mm 1 mps 626 mmHg 30%
    05:00 +4°C° 0 mm 1 mps 626 mmHg 31%
    06:00 +4°C° 0 mm 1 mps 626 mmHg 32%
    07:00 +6°C° 0 mm 1 mps 627 mmHg 33%
    08:00 +8°C° 0 mm 1 mps 628 mmHg 34%
    09:00 +9°C° 0 mm 0 mps 629 mmHg 34%
    10:00 +12°C° 0 mm 1 mps 629 mmHg 32%
    11:00 +14°C° 0 mm 1 mps 630 mmHg 30%
    12:00 +15°C° 0 mm 1 mps 630 mmHg 28%
    13:00 +15°C° 0 mm 1 mps 629 mmHg 31%
    14:00 +15°C° 0 mm 1 mps 629 mmHg 34%
    15:00 +14°C° 0 mm 1 mps 628 mmHg 37%
    16:00 +12°C° 0 mm 1 mps 627 mmHg 46%
    17:00 +9°C° 0 mm 1 mps 626 mmHg 55%
    18:00 +7°C° 0 mm 1 mps 625 mmHg 64%
    19:00 +6°C° 0 mm 1 mps 625 mmHg 58%
    20:00 +6°C° 0 mm 1 mps 625 mmHg 53%
    21:00 +6°C° 0 mm 1 mps 625 mmHg 47%
    22:00 +6°C° 0 mm 1 mps 625 mmHg 45%
    23:00 +6°C° 0 mm 1 mps 625 mmHg 43%

    24 February, Monday

    Time Temperature Precipitation Wind Pressure Humidity
    00:00 +5°C° 0 mm 1 mps 625 mmHg 41%
    01:00 +5°C° 0 mm 1 mps 625 mmHg 44%
    02:00 +5°C° 0 mm 1 mps 624 mmHg 46%
    03:00 +5°C° 0 mm 1 mps 624 mmHg 48%
    04:00 +5°C° 0 mm 1 mps 624 mmHg 50%
    05:00 +5°C° 0 mm 1 mps 623 mmHg 51%
    06:00 +4°C° 0 mm 1 mps 623 mmHg 53%
    07:00 +6°C° 0 mm 1 mps 624 mmHg 50%
    08:00 +8°C° 0 mm 1 mps 625 mmHg 46%
    09:00 +9°C° 0 mm 0 mps 626 mmHg 43%
    10:00 +12°C° 0 mm 1 mps 626 mmHg 39%
    11:00 +13°C° 0 mm 1 mps 626 mmHg 35%
    12:00 +15°C° 0 mm 1 mps 626 mmHg 31%
    13:00 +14°C° 0 mm 1 mps 625 mmHg 33%
    14:00 +14°C° 0 mm 1 mps 625 mmHg 35%
    15:00 +14°C° 0 mm 1 mps 624 mmHg 37%
    16:00 +12°C° 0 mm 1 mps 623 mmHg 47%
    17:00 +9°C° 0 mm 1 mps 622 mmHg 58%
    18:00 +7°C° 0 mm 1 mps 621 mmHg 69%
    19:00 +6°C° 0 mm 1 mps 621 mmHg 64%
    20:00 +6°C° 0 mm 1 mps 621 mmHg 58%
    21:00 +5°C° 0 mm 1 mps 621 mmHg 53%
    22:00 +5°C° 0 mm 1 mps 620 mmHg 47%
    23:00 +5°C° 0 mm 1 mps 620 mmHg 41%

    25 February, Tuesday

    Time Temperature Precipitation Wind Pressure Humidity
    00:00 +4°C° 0 mm 1 mps 620 mmHg 36%
    01:00 +4°C° 0 mm 1 mps 619 mmHg 35%
    02:00 +4°C° 0 mm 1 mps 619 mmHg 34%
    03:00 +3°C° 0 mm 1 mps 619 mmHg 33%
    04:00 +3°C° 0 mm 1 mps 618 mmHg 34%
    05:00 +3°C° 0 mm 1 mps 618 mmHg 35%
    06:00 +3°C° 0 mm 1 mps 618 mmHg 35%
    07:00 +4°C° 0 mm 1 mps 619 mmHg 35%
    08:00 +6°C° 0 mm 1 mps 619 mmHg 34%
    09:00 +7°C° 0 mm 1 mps 620 mmHg 33%
    10:00 +8°C° 0 mm 1 mps 620 mmHg 33%
    11:00 +9°C° 0 mm 1 mps 620 mmHg 34%
    12:00 +9°C° 0 mm 1 mps 620 mmHg 34%
    13:00 +8°C° 0 mm 2 mps 620 mmHg 39%
    14:00 +7°C° 0 mm 2 mps 619 mmHg 43%
    15:00 +7°C° 0 mm 2 mps 619 mmHg 48%
    16:00 +5°C° 0 mm 2 mps 618 mmHg 59%
    17:00 +3°C° 0 mm 2 mps 618 mmHg 71%
    18:00 +1°C° 0 mm 2 mps 617 mmHg 82%
    19:00 +1°C° 0 mm 2 mps 617 mmHg 83%
    20:00 +1°C° 0 mm 2 mps 617 mmHg 85%
    21:00 +1°C° 0 mm 2 mps 617 mmHg 86%
    22:00 +1°C° 0.2 mm 2 mps 617 mmHg 88%
    23:00 -1°C° 0.2 mm 2 mps 617 mmHg 89%

    26 February, Wednesday

    Time Temperature Precipitation Wind Pressure Humidity
    00:00 -1°C° 0.2 mm 2 mps 618 mmHg 91%
    01:00 -1°C° 0.1 mm 2 mps 617 mmHg 91%
    02:00 -1°C° 0.1 mm 2 mps 617 mmHg 91%
    03:00 -2°C° 0.1 mm 2 mps 617 mmHg 91%
    04:00 -2°C° 0 mm 2 mps 617 mmHg 90%
    05:00 -3°C° 0 mm 2 mps 617 mmHg 90%
    06:00 -3°C° 0 mm 2 mps 617 mmHg 89%
    07:00 -2°C° 0 mm 2 mps 618 mmHg 80%
    08:00 -1°C° 0 mm 2 mps 618 mmHg 71%
    09:00 +1°C° 0 mm 2 mps 619 mmHg 62%
    10:00 +3°C° 0 mm 2 mps 619 mmHg 54%
    11:00 +4°C° 0 mm 2 mps 620 mmHg 46%
    12:00 +6°C° 0 mm 2 mps 620 mmHg 39%
    13:00 +5°C° 0 mm 2 mps 620 mmHg 42%
    14:00 +5°C° 0 mm 2 mps 619 mmHg 45%
    15:00 +5°C° 0 mm 2 mps 619 mmHg 48%
    16:00 +3°C° 0 mm 2 mps 618 mmHg 60%
    17:00 +2°C° 0 mm 2 mps 618 mmHg 72%
    18:00 -1°C° 0 mm 2 mps 617 mmHg 84%
    19:00 -2°C° 0 mm 2 mps 617 mmHg 83%
    20:00 -2°C° 0 mm 2 mps 617 mmHg 82%
    21:00 -1°C° 0 mm 1 mps 617 mmHg 80%
    22:00 -1°C° 0 mm 1 mps 617 mmHg 76%
    23:00 -1°C° 0 mm 1 mps 617 mmHg 73%
    Show more